Weather History for Anaktuvuk Pass, AK

Change the Weather History Date:

Tuesday, May 8, 2012

  Actual Average Record
Temperature  
Mean Temperature 8 °F -  
Max Temperature 12 °F 29 °F 51 °F (2005)
Min Temperature 3 °F 14 °F 3 °F (2012)
Degree Days  
Heating Degree Days 58    
Moisture  
Dew Point 3 °F    
Average Humidity 78    
Maximum Humidity 85    
Minimum Humidity 73    
Precipitation  
Precipitation 0.00 in - - ()
Sea Level Pressure  
Sea Level Pressure 29.75 in    
Wind  
Wind Speed 12 mph (NE)    
Max Wind Speed 15 mph    
Max Gust Speed 20 mph    
Visibility 7 miles    
Events      
Averages and records for this station are not official NWS values.
T = Trace of Precipitation, MM = Missing Value Source: NWS Daily Summary

Daily Weather History Graph

Daily Weather History Graph

Search for Another Location

Airport:

Trip Planner

Search our weather history database for the weather conditions in past years. The results will help you decide how hot, cold, wet, or windy it might be!

Date:

Astronomy

May. 08, 2012 Rise Set
Actual Time 4:24 AM AKDT 11:46 PM AKDT
Civil Twilight 2:35 AM AKDT 1:30 AM AKDT
Nautical Twilight Sun does not rise Sun does not rise
Astronomical Twilight Sun does not rise Sun does not rise
Moon No Moon Rise No Moon Set
Length of Visible Light 22h 55m
Length of Day
19h 21m
Waning Gibbous, 89% of the Moon is Illuminated
May 8
Waning Gibbous
May 12
Last Quarter
May 20
New
May 28
First Quarter
Jun 4
Full

Hourly Weather History & Observations

Time (AKDT) Temp. Windchill Dew Point Humidity Pressure Visibility Wind Dir Wind Speed Gust Speed Precip Events Conditions
12:16 AM 6.8 °F -10.7 °F 1.4 °F 79% 29.87 in 5.0 mi NE 15.0 mph 19.6 mph N/A   Overcast
12:36 AM 6.8 °F -10.0 °F 1.4 °F 79% 29.87 in 8.0 mi NE 13.8 mph - N/A   Overcast
12:56 AM 6.8 °F -10.7 °F 1.4 °F 79% 29.86 in 5.0 mi NE 15.0 mph - N/A   Overcast
1:16 AM 6.8 °F -10.7 °F 1.4 °F 79% 29.86 in 3.0 mi NNE 15.0 mph - N/A   Overcast
1:36 AM 6.8 °F -10.7 °F 1.4 °F 79% 29.86 in 2.0 mi NE 15.0 mph - N/A   Overcast
1:56 AM 6.8 °F -10.7 °F 1.4 °F 79% 29.86 in 1.5 mi NE 15.0 mph - N/A   Overcast
2:16 AM 6.8 °F -10.7 °F 1.4 °F 79% 29.85 in 1.5 mi NE 15.0 mph - N/A   Overcast
2:36 AM 6.8 °F -10.7 °F 1.4 °F 79% 29.85 in 2.0 mi NE 15.0 mph 18.4 mph N/A   Overcast
2:56 AM 6.8 °F -10.0 °F 1.4 °F 79% 29.85 in 1.2 mi NE 13.8 mph - N/A   Overcast
3:16 AM 6.8 °F -10.0 °F 1.4 °F 79% 29.84 in 2.0 mi NE 13.8 mph - N/A   Overcast
3:36 AM 5.0 °F -12.3 °F -0.4 °F 78% 29.84 in 1.8 mi NE 13.8 mph - N/A   Overcast
3:56 AM 5.0 °F -12.3 °F -0.4 °F 78% 29.84 in 1.8 mi NE 13.8 mph - N/A   Overcast
4:16 AM 5.0 °F -10.8 °F -0.4 °F 78% 29.83 in 1.5 mi NNE 11.5 mph - N/A   Overcast
4:56 AM 5.0 °F -12.3 °F -0.4 °F 78% 29.83 in 2.5 mi NE 13.8 mph - N/A   Overcast
5:16 AM 3.2 °F -13.9 °F -0.4 °F 85% 29.82 in 2.5 mi NNE 12.7 mph - N/A   Overcast
5:36 AM 5.0 °F -11.6 °F -0.4 °F 78% 29.82 in 1.8 mi NE 12.7 mph - N/A   Overcast
5:56 AM 5.0 °F -11.6 °F -0.4 °F 78% 29.82 in 4.0 mi NE 12.7 mph - N/A   Overcast
6:16 AM 5.0 °F -12.3 °F -0.4 °F 78% 29.81 in 3.0 mi NE 13.8 mph - N/A   Overcast
6:36 AM 5.0 °F -12.3 °F 1.4 °F 85% 29.81 in 2.5 mi NE 13.8 mph - N/A   Overcast
6:56 AM 5.0 °F -11.6 °F -0.4 °F 78% 29.81 in 2.5 mi NE 12.7 mph - N/A   Overcast
7:16 AM 5.0 °F -11.6 °F -0.4 °F 78% 29.80 in 7.0 mi NNE 12.7 mph - N/A   Overcast
7:36 AM 5.0 °F -11.6 °F -0.4 °F 78% 29.79 in 5.0 mi NNE 12.7 mph - N/A   Overcast
7:56 AM 5.0 °F -12.3 °F -0.4 °F 78% 29.79 in 3.0 mi NNE 13.8 mph - N/A   Overcast
8:16 AM 5.0 °F -10.8 °F -0.4 °F 78% 29.79 in 3.0 mi NNE 11.5 mph - N/A   Overcast
8:36 AM 5.0 °F -10.8 °F 1.4 °F 85% 29.79 in 2.5 mi NE 11.5 mph - N/A   Overcast
8:56 AM 6.8 °F -9.3 °F 1.4 °F 79% 29.79 in 7.0 mi NE 12.7 mph - N/A   Overcast
9:16 AM 6.8 °F -9.3 °F 1.4 °F 79% 29.79 in 2.0 mi NE 12.7 mph - N/A   Overcast
9:36 AM 6.8 °F -10.0 °F 1.4 °F 79% 29.78 in 1.8 mi NNE 13.8 mph - N/A   Overcast
9:56 AM 6.8 °F -9.3 °F 1.4 °F 79% 29.78 in 2.5 mi NNE 12.7 mph - N/A   Overcast
10:16 AM 6.8 °F -9.3 °F 1.4 °F 79% 29.78 in 3.0 mi NNE 12.7 mph - N/A   Overcast
10:36 AM 6.8 °F -9.3 °F 1.4 °F 79% 29.78 in 5.0 mi NNE 12.7 mph - N/A   Mostly Cloudy
10:56 AM 6.8 °F -9.3 °F 1.4 °F 79% 29.78 in 9.0 mi NE 12.7 mph - N/A   Mostly Cloudy
11:16 AM 6.8 °F -9.3 °F 3.2 °F 85% 29.77 in 7.0 mi NNE 12.7 mph - N/A   Scattered Clouds
11:36 AM 8.6 °F -6.3 °F 3.2 °F 79% 29.77 in 10.0 mi NNE 11.5 mph - N/A   Mostly Cloudy
11:56 AM 8.6 °F -7.0 °F 1.4 °F 73% 29.76 in 10.0 mi NNE 12.7 mph - N/A   Partly Cloudy
12:16 PM 8.6 °F -6.3 °F 3.2 °F 79% 29.76 in 10.0 mi NE 11.5 mph - N/A   Mostly Cloudy
12:36 PM 8.6 °F -5.5 °F 3.2 °F 79% 29.76 in 10.0 mi NNE 10.4 mph - N/A   Overcast
12:56 PM 8.6 °F -5.5 °F 3.2 °F 79% 29.75 in 10.0 mi NE 10.4 mph - N/A   Overcast
1:16 PM 8.6 °F -5.5 °F 3.2 °F 79% 29.75 in 10.0 mi NE 10.4 mph - N/A   Overcast
1:36 PM 10.4 °F -4.1 °F 3.2 °F 73% 29.74 in 10.0 mi NNE 11.5 mph - N/A   Overcast
1:56 PM 10.4 °F -4.1 °F 3.2 °F 73% 29.74 in 10.0 mi NE 11.5 mph - N/A   Overcast
2:16 PM 10.4 °F -4.1 °F 5.0 °F 79% 29.73 in 10.0 mi NNE 11.5 mph - N/A   Scattered Clouds
2:36 PM 10.4 °F -4.1 °F 3.2 °F 73% 29.73 in 10.0 mi NE 11.5 mph - N/A   Partly Cloudy
2:56 PM 10.4 °F -3.3 °F 5.0 °F 79% 29.73 in 10.0 mi NE 10.4 mph - N/A   Partly Cloudy
3:16 PM 10.4 °F -3.3 °F 5.0 °F 79% 29.72 in 10.0 mi NE 10.4 mph - N/A   Partly Cloudy
3:36 PM 10.4 °F -1.5 °F 5.0 °F 79% 29.71 in 10.0 mi NE 8.1 mph - N/A   Partly Cloudy
3:56 PM 10.4 °F -2.4 °F 5.0 °F 79% 29.71 in 10.0 mi NE 9.2 mph - N/A   Clear
4:16 PM 12.2 °F -0.2 °F 5.0 °F 73% 29.71 in 10.0 mi NE 9.2 mph - N/A   Clear
4:36 PM 12.2 °F 0.7 °F 5.0 °F 73% 29.70 in 10.0 mi NNE 8.1 mph - N/A   Clear
4:56 PM 12.2 °F -0.2 °F 5.0 °F 73% 29.70 in 10.0 mi NNE 9.2 mph - N/A   Scattered Clouds
5:16 PM 12.2 °F -0.2 °F 6.8 °F 79% 29.70 in 10.0 mi NE 9.2 mph - N/A   Mostly Cloudy
5:36 PM 12.2 °F 0.7 °F 6.8 °F 79% 29.69 in 10.0 mi NNE 8.1 mph - N/A   Overcast
5:56 PM 12.2 °F 0.7 °F 6.8 °F 79% 29.68 in 10.0 mi NE 8.1 mph - N/A   Overcast
6:16 PM 12.2 °F 0.7 °F 6.8 °F 79% 29.68 in 10.0 mi NNE 8.1 mph - N/A   Mostly Cloudy
6:36 PM 12.2 °F 0.7 °F 5.0 °F 73% 29.68 in 10.0 mi NNE 8.1 mph - N/A   Overcast
6:56 PM 12.2 °F 1.7 °F 6.8 °F 79% 29.67 in 10.0 mi NNE 6.9 mph - N/A   Overcast
7:16 PM 12.2 °F 2.9 °F 5.0 °F 73% 29.67 in 10.0 mi NNE 5.8 mph - N/A   Overcast
7:36 PM 12.2 °F 1.7 °F 6.8 °F 79% 29.66 in 10.0 mi NNE 6.9 mph - N/A   Overcast
7:56 PM 12.2 °F 2.9 °F 6.8 °F 79% 29.65 in 10.0 mi NNE 5.8 mph - N/A   Overcast
8:16 PM 12.2 °F 4.3 °F 6.8 °F 79% 29.65 in 10.0 mi NNE 4.6 mph - N/A   Overcast
8:36 PM 12.2 °F 4.3 °F 6.8 °F 79% 29.65 in 10.0 mi NNE 4.6 mph - N/A   Overcast
8:56 PM 12.2 °F 4.3 °F 6.8 °F 79% 29.64 in 10.0 mi NNE 4.6 mph - N/A   Overcast
9:16 PM 12.2 °F 4.3 °F 6.8 °F 79% 29.64 in 10.0 mi NNE 4.6 mph - N/A   Overcast
9:36 PM 12.2 °F 2.9 °F 6.8 °F 79% 29.63 in 10.0 mi NNE 5.8 mph - N/A   Overcast
9:56 PM 12.2 °F 2.9 °F 6.8 °F 79% 29.63 in 10.0 mi NNE 5.8 mph - N/A   Overcast
10:16 PM 10.4 °F -0.4 °F 5.0 °F 79% 29.63 in 10.0 mi NE 6.9 mph - N/A   Overcast
10:36 PM 10.4 °F -0.4 °F 5.0 °F 79% 29.62 in 10.0 mi NE 6.9 mph - N/A   Overcast
10:56 PM 10.4 °F -0.4 °F 3.2 °F 73% 29.62 in 10.0 mi NE 6.9 mph - N/A   Overcast
11:16 PM 10.4 °F 0.8 °F 5.0 °F 79% 29.61 in 10.0 mi NE 5.8 mph - N/A   Overcast
11:36 PM 10.4 °F 0.8 °F 3.2 °F 73% 29.61 in 10.0 mi NNE 5.8 mph - N/A   Overcast
11:56 PM 10.4 °F 2.2 °F 5.0 °F 79% 29.60 in 10.0 mi NNE 4.6 mph - N/A   Overcast